THOR ABLESTAR DEB, 159

Orbit data source: Space-Track

THOR ABLESTAR DEB, 159 is space debris in LEO originally from a launch on Thu, 29 Jun 1961 UTC launched from the Air Force Eastern Test Range (AFETR). Debris objects in space refer to the collection of defunct objects orbiting the Earth. Examples of debris include non-operational satellites, rocket bodies, and fragments generated from explosions, collisions, or faulty payload assembly.

Loading next visibility...
Identifier
159, 1961-015AV
Orbit
LEO
Country
Flag of USUS
Related business
Manufacturer
Unknown
Mission
Spacecraft
Bus & Motor
Unknown
Mass
Unknown
Launch date (UTC)
1961-06-29 (65 years ago)
Launch vehicle
Unknown
Launch site
Air Force Eastern Test Range (AFETR)
Object type
Payload
Rocket body
Debris
Shape & HBR
Unknown shape, 0.2 m
Radar Cross Section
Medium (>0.1 m² and <1 m²)

Expand to show TLE details & history
Last TLE update: 12 hours ago

TLE from 12 hours ago
0 THOR ABLESTAR DEB
1   159U 61015AV  26237.26173554 -.00000047  00000-0  47858-4 0  9999
2   159  65.5247  81.8020 0359879 133.5060 229.6479 13.03096709 89851
Epoch: 2026-08-25T06:16Z
TLE epoch observation values (Epoch: 2026-08-25T06:16:53.950Z)
Latitude
0.00004°
Longitude
14.04561°
Altitude
1,435.187 km
Speed
7.058 km/s
True Right ascension
05h 27m 12s
True Declination
0° 00' 00"
Sunlit
Object was in daylight at epoch
Visualization orbit readout
Latitude
Unknown
Longitude
Unknown
Altitude
Unknown
Speed
Unknown
Apparent Right ascension
Unknown
Apparent Declination
Unknown
Sunlit
N/A
Visualization observer readout
Local Sidereal Time
09:22:46
Azimuth
Unknown
Elevation
Unknown
Doppler factor
Unknown
Orbital elements
Apogee altitude
1,523.053 km
Perigee altitude
974.113 km
Semi-major axis
7,626.72 km
Eccentricity
0.03599
Inclination
65.5247°
RAAN
81.802°
Arg. of periapsis
133.506°
True anomaly
226.59563°
Mean anomaly
229.6479°
Eccentric anomaly
228.11285°
Mean motion
3.25864 °/min
Orbital period
110.48 mins
BSTAR
0.000047858

Documentation

Showing up to 5 results
|